Regional Weather Roundup
Issued by NWS Albany, NY

Home | Current Version | Previous Version | Graphics & Text | Print | Product List | Glossary On
Versions: 1 2 3 4 5 6 7 8 9 10 11 12 13 14 15 16 17 18 19 20 21 22 23 24 25 26 27 28 29 30 31 32 33 34 35 36 37 38 39 40 41 42 43 44 45 46 47 48 49 50
000
ASUS41 KALY 301210
RWRALY

NEW YORK STATE HOURLY WEATHER ROUNDUP
NATIONAL WEATHER SERVICE ALBANY NY
800 AM EDT SAT AUG 30 2014

NOTE: "FAIR" INDICATES FEW OR NO CLOUDS BELOW 12,000 FEET WITH NO
SIGNIFICANT WEATHER AND/OR NO OBSTRUCTIONS TO VISIBILITY.

NYZ032-033-038>043-046>054-057>066-NYZ062>081-301300-
EAST


CITY           SKY/WX    TMP DP  RH WIND       PRES   REMARKS
ALBANY         MOSUNNY   61  55  81 S7        30.25S
GLENS FALLS    SUNNY     60  56  86 S7        30.24S
POUGHKEEPSIE   SUNNY     60  56  86 CALM      30.27S
NEWBURGH       SUNNY     61  57  88 CALM      30.29S
MONTGOMERY     SUNNY     56  53  90 CALM      30.28S
WHITE PLAINS   SUNNY     65  59  81 CALM      30.28R
ISLIP          PTSUNNY   69  60  73 SE7       30.26F
NEW YORK CITY  MOSUNNY   70  55  59 CALM      30.27S
CENTRAL PARK   MOSUNNY   69  55  60 CALM      30.30S
$$

NYZ005>009-017-018-044>046-055-056-301300-
CENTRAL


CITY           SKY/WX    TMP DP  RH WIND       PRES   REMARKS
FULTON         MOSUNNY   62  55  77 VRB5      30.13S
SYRACUSE       PTSUNNY   66  56  70 S7        30.14S
ROME           SUNNY     61  56  83 SE8       30.20S
ELMIRA         SUNNY     58  55  90 CALM      30.18F
BINGHAMTON     SUNNY     58  56  93 S8        30.22S
MONTICELLO     SUNNY     55  54  94 E3        30.30R
$$

NYZ026>034-041>043-301300-
NORTH


CITY           SKY/WX    TMP DP  RH WIND       PRES   REMARKS
WATERTOWN      MOSUNNY   67  53  61 S8G17     30.11S
FORT DRUM      NOT AVBL
MASSENA        PTSUNNY   65  58  78 S6        30.11F
SARANAC LAKE   MOSUNNY   59  53  80 SW9       30.15F
PLATTSBURGH    MOSUNNY   61  57  87 S3        30.16F
$$

NYZ001>004-010>016-019>021-301300-
WEST


CITY           SKY/WX    TMP DP  RH WIND       PRES   REMARKS
NIAGARA FALLS  PTSUNNY   69  59  70 S8        30.06S
BUFFALO        PTSUNNY   66  55  67 SE6       30.07S
DUNKIRK        SUNNY     70  57  63 S21       30.07S
JAMESTOWN      SUNNY     61  55  82 S8        30.14S
WELLSVILLE     SUNNY     62  53  72 S7        30.19S
ROCHESTER      MOSUNNY   62  56  80 SW6       30.10S
PENN YAN       SUNNY     63  53  70 S14G23    30.15S
$$

             KEY
       WCI = WIND CHILL INDEX
       VSB = VISIBILITY
       HX  = HEAT INDEX
$$



USA.gov is the U.S. government's official web portal to all federal, state and local government web resources and services.